[[{"header":{"parameterUnit":"m.s-1","parameterCategory":1,"la1":30.2991,"la2":30.254,"lo1":-89.0895,"lo2":-89.0444,"dy":0.0017,"dx":0.0017,"nx":28,"ny":28,"refTime":"2024-08-19T03:00:00:Z","depth":0,"parameterNumber":2,"parameterNumberName":"U-component_of_WINDS"},"data":[0,0,0,0,0,0,0,0,0,0,0,0,0,0,0,0,0,0,0,0,0,0,0,0,0,0,0,0,0,0,0,0,0,0,0,0,0,0,0,0,0,0,0,0,0,0,0,0,0,0,0,0,0,0,0,0,0,0,-0.8938,-0.8939,0,-0.9045,-0.9047,-0.9048,-0.9005,-0.9002,-0.8999,-0.8997,-0.9111,-0.9116,-0.9122,0,0,0,0,0,0,0,0,0,0,0,0,0,-0.8698,-0.8703,-0.8937,-0.8939,-0.894,-0.9045,-0.9047,-0.9048,-0.9005,-0.9002,-0.8999,-0.8996,-0.9109,-0.9116,-0.9122,0,0,0,0,0,0,0,0,0,0,0,0,0,-0.8804,-0.8704,-0.8937,-0.8931,-0.8932,-0.9045,-0.9047,-0.9049,-0.9006,-0.9002,-0.8998,-0.8994,-0.9107,-0.9115,-0.9123,-0.925,0,0,-0.9148,-0.9151,0,0,0,0,0,0,0,0,-0.8798,-0.8813,-0.8931,-0.8932,-0.8933,-0.9007,-0.9004,-0.9116,-0.9007,-0.8978,-0.8997,-0.8993,-0.908,-0.909,-0.9119,-0.9255,-0.926,-0.9149,-0.9153,-0.9157,-0.9159,0,0,0,0,0,0,0,-0.8791,-0.8808,-0.898,-0.8933,-0.8934,-0.8924,-0.8935,-0.9025,-0.9049,-0.898,-0.8977,-0.899,-0.908,-0.9111,-0.9121,-0.9262,-0.9148,-0.9156,-0.9161,-0.9164,-0.951,-0.9514,0,0,0,0,0,0,-0.8782,-0.8802,-0.8977,-0.8983,-0.8854,-0.8932,-0.8944,-0.8987,-0.9048,-0.9053,-0.8993,-0.8988,-0.9099,-0.9112,-0.9125,-0.928,-0.9157,-0.9164,-0.9169,-0.9506,-0.9511,-0.9516,0,0,0,0,0,0,-0.8778,-0.8798,-0.8972,-0.8892,-0.8913,-0.894,-0.8989,-0.8992,-0.9023,-0.9058,-0.9062,-0.9021,-0.9097,-0.9114,-0.9219,-0.9283,-0.9168,-0.9176,-0.9501,-0.9508,-0.9513,-0.9589,0,0,0,0,0,0,-0.8771,-0.8797,-0.8844,-0.8893,-0.8918,-0.9064,-0.8993,-0.8996,-0.9037,-0.903,-0.9085,-0.909,-0.9095,-0.9208,-0.9228,-0.9292,-0.9182,-0.9495,-0.9504,-0.9511,-0.9581,-0.9597,-0.9611,0,0,0,0,0,-0.8762,-0.8861,-0.8847,-0.8868,-0.8977,-0.9068,-0.9082,-0.9084,-0.9042,-0.9091,-0.9113,-0.9089,-0.9272,-0.9219,-0.9241,-0.9309,-0.9491,-0.9501,-0.9511,-0.9574,-0.9594,-0.9611,0,0,0,0,0,0,-0.882,-0.8868,-0.8852,-0.897,-0.9015,-0.906,-0.9122,-0.9105,-0.9164,-0.9156,-0.9157,-0.9169,-0.9279,-0.9304,-0.9244,-0.9436,-0.9376,-0.939,-0.9416,-0.9435,-0.945,-0.9443,-0.9189,0,0,0,0,0,-0.8846,-0.8914,-0.8952,-0.9053,-0.9076,-0.9095,-0.9135,-0.9132,-0.918,-0.9199,-0.9229,-0.9278,-0.9346,-0.9392,-0.9457,-0.9583,-0.9596,-0.9641,-0.9656,-0.9668,-0.9682,-0.9754,-0.9775,-0.9548,-0.9548,-0.9548,0,0,-0.8901,-0.8936,-0.8979,-0.9065,-0.91,-0.9173,-0.9112,-0.919,-0.9245,-0.9211,-0.9314,-0.9338,-0.9392,-0.9509,-0.9563,-0.9533,-0.9747,-0.9681,-0.969,-0.9697,-0.9766,-0.9788,-0.9807,-0.9554,-0.9553,-0.9552,0,0,-0.9039,-0.9071,-0.9159,-0.9195,-0.9249,-0.9261,-0.9282,-0.9331,-0.9345,-0.9448,-0.9425,-0.949,-0.9607,-0.9648,-0.9683,-0.9838,-0.9819,-0.9859,-0.9939,-1.0009,-1.0027,-1.0043,-1.0101,-1.0122,-0.9872,-0.9872,-0.9872,0,-0.9102,-0.9209,-0.9207,-0.9288,-0.9328,-0.93,-0.9391,-0.9426,-0.9499,-0.9528,-0.9493,-0.9642,-0.9676,-0.9804,-0.9842,-0.987,-0.9897,-0.9854,-1.0024,-1.004,-1.0055,-1.0111,-1.0133,-0.9877,-0.9876,-0.9876,-0.9875,0,-0.9284,-0.9359,-0.9424,-0.9494,-0.9541,-0.9627,-0.9639,-0.9687,-0.9681,-0.9697,-0.9804,-0.9843,-0.9917,-0.9947,-0.9941,-1.0075,-1.0056,-1.0023,-0.9963,-1.0082,-1.0134,-1.0155,-0.9884,-0.9882,-0.9881,-0.9879,0,0,-0.9463,-0.9531,-0.9556,-0.9588,-0.9645,-0.9704,-0.9789,-0.986,-0.9903,-0.9953,-1.0027,-1.0127,-1.0098,-1.0139,-1.0137,-1.0199,-1.0323,-1.0159,-1.016,-1.0191,-1.0476,-1.0503,-1.0527,-1.0309,-1.0313,-1.0316,-1.0473,0,-0.9607,-0.9756,-0.9757,-0.9895,-0.9965,-0.994,-1.0015,-1.0059,-1.0077,-1.014,-1.016,-1.0233,-1.0186,-1.0211,-1.027,-1.0295,-1.038,-1.0283,-1.038,-1.0383,-1.037,-1.0554,-1.0582,-1.0728,-1.0493,-1.0496,-1.0499,0,-0.9796,-0.9854,-0.9998,-1.0047,-1.0077,-1.0144,-1.0211,-1.0271,-1.0321,-1.033,-1.0376,-1.0366,-1.0455,-1.039,-1.0514,-1.0448,-1.0487,-1.0505,-1.0511,-1.0523,-1.045,-1.0574,-1.0774,-1.0797,-1.053,-1.0528,-1.0525,0,-0.9916,-1.0029,-1.013,-1.0159,-1.0218,-1.0266,-1.0293,-1.0339,-1.0383,-1.0441,-1.047,-1.0538,-1.0577,-1.063,-1.064,-1.0591,-1.0766,-1.0701,-1.0778,-1.0778,-1.0818,-1.0816,-1.1031,-1.0839,-1.0838,-1.0838,-1.0837,0,-1.0079,-1.0169,-1.0185,-1.0248,-1.0349,-1.035,-1.0451,-1.0474,-1.0516,-1.0584,-1.0566,-1.0631,-1.0638,-1.0706,-1.0714,-1.0817,-1.0834,-1.0845,-1.0847,-1.0849,-1.0848,-1.0877,-1.0868,-1.0844,-1.0842,-1.0841,-1.084,0,-1.0231,-1.0244,-1.0354,-1.0401,-1.0415,-1.0488,-1.0529,-1.059,-1.0606,-1.0693,-1.0713,-1.0739,-1.0818,-1.0832,-1.0924,-1.093,-1.1055,-1.1044,-1.1038,-1.1038,-1.1115,-1.1109,-1.1359,-1.1393,-1.1175,-1.1177,-1.1179,0,-1.0335,-1.0404,-1.0459,-1.0503,-1.0533,-1.0604,-1.0648,-1.0652,-1.07,-1.0763,-1.0818,-1.0894,-1.0956,-1.1084,-1.1112,-1.1183,-1.1177,-1.1259,-1.1187,-1.1188,-1.1182,-1.1179,-1.1187,-1.1274,-1.1276,-1.1278,-1.128,0,-1.0521,-1.0524,-1.0589,-1.0657,-1.071,-1.0764,-1.0815,-1.0852,-1.0863,-1.0918,-1.0998,-1.1046,-1.1141,-1.1219,-1.129,-1.132,-1.1304,-1.1302,-1.1324,-1.1328,-1.1323,-1.133,-1.1079,-1.1297,-1.1295,-1.1294,-1.1293,-1.1292,-1.0654,-1.0715,-1.0764,-1.0837,-1.0876,-1.0924,-1.0985,-1.1008,-1.1074,-1.1152,-1.115,-1.1239,-1.129,-1.1384,-1.1418,-1.1489,-1.1463,-1.1494,-1.1503,-1.1512,-1.1521,-1.1309,-1.1502,-1.1501,-1.1501,-1.15,-1.15,0,-1.0841,-1.0871,-1.0938,-1.101,-1.1069,-1.1046,-1.1101,-1.1152,-1.123,-1.1278,-1.134,-1.1433,-1.1509,-1.1543,-1.1617,-1.1668,-1.1662,-1.1688,-1.1686,-1.1694,-1.1538,-1.1513,-1.1691,-1.1691,-1.1691,-1.1691,-1.1691,-1.1691,-1.0946,-1.1049,-1.1059,-1.1182,-1.1212,-1.1298,-1.1332,-1.1378,-1.1416,-1.1522,-1.1584,-1.1605,-1.1648,-1.1726,-1.1796,-1.1804,-1.1834,-1.1863,-1.1868,-1.1723,-1.1704,-1.1686,-1.1662,-1.1869,-1.1869,-1.2018,-1.202,-1.2021]},{"header":{"parameterUnit":"m.s-1","parameterCategory":1,"la1":30.2991,"la2":30.254,"lo1":-89.0895,"lo2":-89.0444,"dy":0.0017,"dx":0.0017,"nx":28,"ny":28,"refTime":"2024-08-19T03:00:00:Z","depth":0,"parameterNumber":3,"parameterNumberName":"V-component_of_WINDS"},"data":[0,0,0,0,0,0,0,0,0,0,0,0,0,0,0,0,0,0,0,0,0,0,0,0,0,0,0,0,0,0,0,0,0,0,0,0,0,0,0,0,0,0,0,0,0,0,0,0,0,0,0,0,0,0,0,0,0,0,-3.0907,-3.0907,0,-3.0907,-3.0907,-3.0907,-3.0845,-3.0843,-3.0842,-3.084,-3.0841,-3.0842,-3.0844,0,0,0,0,0,0,0,0,0,0,0,0,0,-3.0853,-3.0855,-3.0907,-3.0907,-3.0907,-3.0907,-3.0907,-3.0907,-3.0845,-3.0843,-3.0841,-3.0839,-3.084,-3.0842,-3.0844,0,0,0,0,0,0,0,0,0,0,0,0,0,-3.0867,-3.0855,-3.0907,-3.0876,-3.0873,-3.0907,-3.0907,-3.0907,-3.0846,-3.0843,-3.0841,-3.0838,-3.084,-3.0842,-3.0844,-3.0908,0,0,-3.0851,-3.0852,0,0,0,0,0,0,0,0,-3.0867,-3.0869,-3.0881,-3.0878,-3.0875,-3.0873,-3.0888,-3.0907,-3.0846,-3.0856,-3.084,-3.0837,-3.0854,-3.0855,-3.086,-3.0908,-3.0908,-3.0851,-3.0853,-3.0854,-3.0854,0,0,0,0,0,0,0,-3.0866,-3.0869,-3.0907,-3.0881,-3.0878,-3.0862,-3.0862,-3.0892,-3.0869,-3.0855,-3.0851,-3.0851,-3.0852,-3.0858,-3.086,-3.0908,-3.0851,-3.0853,-3.0855,-3.0856,-3.1007,-3.1009,0,0,0,0,0,0,-3.0869,-3.0869,-3.0907,-3.0907,-3.0865,-3.0865,-3.0864,-3.0877,-3.0868,-3.0865,-3.0854,-3.0849,-3.0855,-3.0857,-3.0859,-3.0933,-3.0854,-3.0856,-3.0857,-3.1004,-3.1007,-3.101,0,0,0,0,0,0,-3.0868,-3.0873,-3.0907,-3.0887,-3.089,-3.0869,-3.0883,-3.0878,-3.0884,-3.0867,-3.0863,-3.0864,-3.0853,-3.0856,-3.0896,-3.0932,-3.0857,-3.0859,-3.1001,-3.1005,-3.1009,-3.108,0,0,0,0,0,0,-3.0867,-3.0873,-3.0897,-3.0888,-3.0891,-3.0944,-3.0885,-3.088,-3.0888,-3.0882,-3.0876,-3.0872,-3.0852,-3.0893,-3.0898,-3.0934,-3.0861,-3.0998,-3.1003,-3.1008,-3.1075,-3.1086,-3.1096,0,0,0,0,0,-3.0865,-3.0917,-3.0899,-3.0904,-3.0921,-3.0946,-3.0948,-3.0923,-3.0891,-3.0915,-3.0904,-3.0873,-3.0927,-3.0897,-3.0903,-3.094,-3.0995,-3.1001,-3.1007,-3.107,-3.1084,-3.1096,0,0,0,0,0,0,-3.0932,-3.0916,-3.0895,-3.0945,-3.0948,-3.0936,-3.0965,-3.0939,-3.095,-3.0943,-3.0912,-3.0911,-3.0956,-3.0952,-3.0919,-3.1,-3.0956,-3.0963,-3.1001,-3.1015,-3.1025,-3.1025,-3.0863,0,0,0,0,0,-3.0952,-3.0974,-3.0959,-3.1005,-3.1008,-3.0986,-3.0996,-3.0977,-3.0978,-3.0978,-3.097,-3.0972,-3.099,-3.1002,-3.1017,-3.1074,-3.1071,-3.1102,-3.1113,-3.1121,-3.1128,-3.1157,-3.117,-3.103,-3.103,-3.1029,0,0,-3.0995,-3.0989,-3.1005,-3.1019,-3.1018,-3.1041,-3.0987,-3.1014,-3.1031,-3.0982,-3.1019,-3.1014,-3.1014,-3.1062,-3.1083,-3.106,-3.1166,-3.1129,-3.1136,-3.1138,-3.1164,-3.1178,-3.119,-3.1034,-3.1033,-3.1032,0,0,-3.1085,-3.1083,-3.1121,-3.1121,-3.1121,-3.1106,-3.1115,-3.1107,-3.1101,-3.1138,-3.1101,-3.1121,-3.1152,-3.1154,-3.1159,-3.1249,-3.122,-3.1255,-3.1311,-3.1339,-3.135,-3.136,-3.1392,-3.1404,-3.1262,-3.1262,-3.1262,0,-3.1138,-3.1172,-3.1144,-3.1173,-3.118,-3.1137,-3.1175,-3.1176,-3.1181,-3.1187,-3.1161,-3.1199,-3.1196,-3.1244,-3.1266,-3.1272,-3.1281,-3.1255,-3.1351,-3.1361,-3.1369,-3.1399,-3.1411,-3.1266,-3.1265,-3.1265,-3.1265,0,-3.1237,-3.1261,-3.1292,-3.1297,-3.1307,-3.1341,-3.1318,-3.1332,-3.1311,-3.13,-3.1337,-3.1332,-3.1345,-3.1356,-3.1336,-3.1401,-3.1386,-3.1357,-3.1311,-3.1387,-3.1415,-3.1426,-3.1272,-3.127,-3.1269,-3.1268,0,0,-3.1369,-3.1358,-3.137,-3.1371,-3.1367,-3.1385,-3.1417,-3.1429,-3.1442,-3.1447,-3.1472,-3.1499,-3.1471,-3.1477,-3.1457,-3.1483,-3.1554,-3.1449,-3.1449,-3.1468,-3.1624,-3.1646,-3.166,-3.1535,-3.1537,-3.1539,-3.1624,0,-3.1455,-3.1508,-3.1484,-3.1539,-3.1561,-3.152,-3.1547,-3.1548,-3.1538,-3.1554,-3.1543,-3.1563,-3.1525,-3.1528,-3.1551,-3.154,-3.1584,-3.1534,-3.1558,-3.1559,-3.1559,-3.1674,-3.1698,-3.1778,-3.1634,-3.1636,-3.1637,0,-3.1563,-3.1572,-3.163,-3.1621,-3.1629,-3.1655,-3.1664,-3.168,-3.168,-3.1671,-3.1677,-3.1652,-3.1682,-3.1637,-3.1678,-3.1644,-3.1653,-3.1649,-3.1652,-3.1652,-3.1603,-3.1678,-3.1803,-3.1815,-3.1654,-3.1653,-3.1652,0,-3.1653,-3.1679,-3.1717,-3.172,-3.1711,-3.173,-3.1727,-3.1724,-3.1733,-3.1742,-3.1747,-3.1759,-3.1766,-3.1776,-3.1754,-3.1723,-3.1798,-3.1751,-3.1791,-3.1792,-3.1808,-3.1807,-3.1937,-3.1815,-3.1815,-3.1814,-3.1814,0,-3.1752,-3.1788,-3.1757,-3.178,-3.182,-3.1792,-3.1832,-3.1825,-3.1823,-3.1844,-3.1809,-3.183,-3.18,-3.1818,-3.1801,-3.1838,-3.1841,-3.1834,-3.1829,-3.1837,-3.1838,-3.1842,-3.1835,-3.1818,-3.1817,-3.1816,-3.1816,0,-3.1858,-3.1839,-3.1877,-3.1866,-3.1864,-3.1894,-3.1884,-3.1905,-3.1892,-3.1919,-3.1924,-3.1904,-3.1923,-3.1902,-3.192,-3.1909,-3.1958,-3.1945,-3.1958,-3.1954,-3.1994,-3.1991,-3.213,-3.2147,-3.2015,-3.2017,-3.2018,0,-3.1922,-3.195,-3.1941,-3.1952,-3.1952,-3.1971,-3.198,-3.1953,-3.1963,-3.1965,-3.1986,-3.2002,-3.2013,-3.2045,-3.2033,-3.2046,-3.2033,-3.2081,-3.2034,-3.2041,-3.2033,-3.2031,-3.2034,-3.209,-3.2092,-3.2093,-3.2094,0,-3.2038,-3.2027,-3.2041,-3.2051,-3.2063,-3.207,-3.2074,-3.2086,-3.2058,-3.2072,-3.209,-3.2099,-3.2117,-3.2133,-3.2142,-3.214,-3.2112,-3.2109,-3.2118,-3.2126,-3.2132,-3.2129,-3.1983,-3.2105,-3.2104,-3.2103,-3.2103,-3.2102,-3.2125,-3.2147,-3.2144,-3.2161,-3.2161,-3.2166,-3.2185,-3.2174,-3.219,-3.2201,-3.2185,-3.2208,-3.2207,-3.2217,-3.2217,-3.2235,-3.2214,-3.2229,-3.2232,-3.2236,-3.2242,-3.213,-3.2237,-3.2236,-3.2236,-3.2236,-3.2235,0,-3.2238,-3.2234,-3.225,-3.2257,-3.227,-3.2243,-3.2246,-3.2259,-3.228,-3.2281,-3.2292,-3.2314,-3.2329,-3.2318,-3.2331,-3.2347,-3.2335,-3.2351,-3.235,-3.2349,-3.226,-3.225,-3.2361,-3.2361,-3.2361,-3.2361,-3.2361,-3.2361,-3.2299,-3.2335,-3.2323,-3.2359,-3.2354,-3.2376,-3.2381,-3.2385,-3.2385,-3.2411,-3.2423,-3.2415,-3.2411,-3.2424,-3.2437,-3.2433,-3.2439,-3.246,-3.2452,-3.2368,-3.2356,-3.2344,-3.2334,-3.2462,-3.2462,-3.254,-3.2541,-3.2541]}]]